User: anonymous   Login
Location: Unspecified
(0.0000°N, 0.0000°E)
Time: 05:29:51
(UTC+01:00)
Language:

Cosmos 2279 Rocket - Orbit

View from above orbital plane
View from above orbital plane
View from above satellite
View from above satellite

Ground track
Ground track

The orbit data is extracted from the following two-line orbital elements,

1 23093U 94024B   17021.66800340 +.00000157 +00000-0 +14175-3 0  9998
2 23093 082.9445 223.4562 0011173 058.6275 301.5974 13.77713899611014
Epoch (UTC): 21 January 2017 16:01:55
Eccentricity: 0.0011173
inclination: 82.9445°
perigee height: 964 km
apogee height: 980 km
right ascension of ascending node: 223.4562°
argument of perigee: 58.6275°
revolutions per day: 13.77713899
mean anomaly at epoch: 301.5974°
orbit number at epoch: 61101

The dashed part of the orbit path shows where the satellite is in the earth's shadow,  

DLR